Tracking 33747 objects as of 12-Apr-2026
HD Live streaming from Space Station
objects crossing your sky now

STARLINK-36606

Track STARLINK-36606 now!
10-day predictions
STARLINK-36606 is classified as:


NORAD ID: 67845
Int'l Code: 2026-033AA
Perigee: 489.6 km
Apogee: 490.7 km
Inclination: 43.0 °
Period: 94.3 minutes
Semi major axis: 6861 km
RCS: Unknown
Launch date: February 16, 2026
Source: United States (US)
Launch site: AIR FORCE EASTERN TEST RANGE (AFETR)
Your satellite tracking list
Your tracking list is empty




NASA's NSSDC Master Catalog

Two Line Element Set (TLE):
1 67845U 26033AA  26101.62333094  .00011635  00000-0  43156-3 0  9992
2 67845  42.9996  80.7991 0000758 253.2425 106.8343 15.27586207  9713
Source of the keplerian elements: AFSPC